Home > Weather > Kilgore > Past weeks

Flag for USA Past Weather in Kilgore, Texas, USA — Yesterday and Last 2 Weeks

Now
74 °F

Clear.


Feels Like: 70 °F
Forecast: 75 / 93 °F
Wind: No wind

Location: Gregg County Airport

Current Time: Jul 26, 2016 at 5:17:18 AM

Latest Report: Jul 26, 2016 at 4:53 AM


Visibility: 10 mi

Pressure: 29.92 "Hg

Humidity: 97%

Dew Point: 73 °F

Location of KilgoreLocation

Past Weather in Kilgore — Graph

°F

Kilgore Temperature Yesterday

Maximum temperature yesterday: 94 °F (at 4:53 PM)
Minimum temperature yesterday: 74 °F (at 2:53 AM)
Average temperature yesterday: 82 °F

High & Low Weather Summary for the Past Weeks

 TemperatureHumidityPressure
High100 °F (Jul 22, 3:53 PM)100% (Jul 11, 4:53 AM)30.21 "Hg (Jul 11, 4:53 AM)
Low73 °F (Jul 16, 2:53 AM)35% (Jul 16, 4:53 PM)29.84 "Hg (Jul 23, 6:53 PM)
Average85 °F69%30.00 "Hg
* Reported Jul 11 3:53 AM — Jul 26 3:53 AM, Kilgore, Weather by CustomWeather, © 2016

Note: Actual official high and low records may vary slightly from our data, if they occured in-between our weather recording intervals... More about our weather records

Advertising

Kilgore Weather History for the Previous 24 Hours

Scroll right to see more
 ConditionsComfort  
Time TempWeatherWind HumidityBarometerVisibility
3:53 AM
Tue, Jul 26
74 °FClear.3 mph97%29.92 "Hg10 mi
2:53 AM74 °FClear.No wind97%29.92 "Hg10 mi
1:53 AM74 °FClear.No wind97%29.91 "Hg10 mi
12:53 AM75 °FClear.No wind94%29.88 "Hg10 mi
11:53 PM
Mon, Jul 25
76 °FClear.No wind91%29.88 "Hg10 mi
10:53 PM77 °FClear.3 mph88%29.90 "Hg10 mi
9:53 PM79 °FPassing clouds.8 mph84%29.92 "Hg10 mi
8:53 PM83 °FScattered clouds.25 mph77%29.91 "Hg10 mi
7:53 PM88 °FScattered clouds.5 mph65%29.88 "Hg10 mi
6:53 PM90 °FScattered clouds.3 mph59%29.87 "Hg10 mi
5:53 PM92 °FScattered clouds.10 mph52%29.85 "Hg10 mi
4:53 PM94 °FScattered clouds.13 mph52%29.85 "Hg10 mi
3:53 PM91 °FScattered clouds.No wind57%29.86 "Hg10 mi
2:53 PM81 °FThunderstorms. Scattered clouds.3 mph77%29.89 "Hg10 mi
1:53 PM83 °FThunderstorms. Partly sunny.12 mph68%29.90 "Hg10 mi
12:53 PM92 °FPartly sunny.6 mph60%29.92 "Hg10 mi
11:53 AM92 °FPartly sunny.3 mph60%29.94 "Hg10 mi
10:53 AM88 °FPassing clouds.3 mph65%29.95 "Hg10 mi
9:53 AM84 °FSunny.No wind74%29.96 "Hg10 mi
8:53 AM80 °FScattered clouds.3 mph85%29.96 "Hg10 mi
7:53 AM77 °FScattered clouds.5 mph94%29.96 "Hg6 mi
6:53 AM75 °FClear.3 mph96%29.96 "Hg10 mi
5:53 AM75 °FPassing clouds.No wind96%29.95 "Hg10 mi
Weather by CustomWeather, © 2016

See weather overviewHow to use our weather pages